Wetbulb
59.77 56.06 53.93 54.69 58.41 58.15 56.29 55.01 54.65 57.75 61.02 59.65 60.02 59.75 62.23 65.67 66.82 66.23 68.34 69.27 69.37 69.15 70.67 71.63 72.17 72.54 72.91 73.72 74.24 75.88 76.55 78.70 76.98 75.15 74.30 74.02 72.69 73.91 73.51 74.11 76.89 77.56 78.03 78.96
55.80 53.78 56.23 57.06 56.32 56.79 56.15 54.65 54.73 57.05 60.02 59.90 59.47 60.10 62.74 63.76 65.67 66.83 67.31 68.84 69.33 69.94 70.06 70.56 71.60 72.08 72.38 73.24 75.27 76.74 77.52 79.38 78.22 76.17 76.56 74.98 75.24 73.41 73.48 74.02 78.09 77.95 78.57 79.71
52.35 54.72 56.65 53.72 53.39 53.61 55.22 54.21 54.53 54.56 57.70 60.30 58.65 58.07 59.35 62.68 64.17 66.71 66.94 69.73 69.91 70.24 70.14 70.08 70.66 71.43 72.10 72.71 75.24 76.42 78.03 78.87 78.59 78.36 77.17 77.07 76.22 75.50 73.12 73.83 74.91 77.61 78.85 79.30
53.17 55.18 53.39 52.32 51.81 52.83 50.11 54.94 55.22 54.68 54.89 53.15 58.06 51.80 57.99 60.33 61.37 63.25 65.08 67.66 69.30 70.18 71.37 71.01 70.58 71.14 71.60 72.69 74.43 77.18 78.65 79.04 79.00 79.64 76.97 76.88 73.14 71.64 72.21 74.12 74.82 77.21 79.24 79.05
51.98 52.41 52.19 51.53 52.08 53.99 51.97 54.74 54.30 54.81 53.93 54.66 55.17 53.54 56.67 60.02 59.04 61.03 63.70 65.32 68.46 70.11 71.10 71.06 71.01 71.11 72.06 72.47 73.16 75.61 78.84 79.30 79.20 79.22 78.63 76.24 75.70 73.46 73.66 73.96 78.29 78.80 80.74 80.04
54.30 56.50 55.04 53.84 54.56 54.48 55.12 53.27 53.32 53.42 52.71 48.49 53.31 54.10 54.77 56.99 59.77 61.35 64.07 65.35 66.81 69.57 70.78 71.57 72.36 71.83 71.50 72.15 72.86 74.57 78.60 79.56 80.01 79.95 79.16 79.42 77.39 76.22 73.23 75.26 74.98 75.40 75.90 77.83
52.10 53.34 54.92 55.63 52.65 54.34 53.13 50.73 45.88 45.21 46.01 46.06 53.15 52.36 55.09 58.95 60.54 62.18 62.81 65.13 66.74 69.34 70.56 71.27 71.60 71.30 71.89 72.27 73.71 74.92 78.25 79.24 80.12 79.81 79.22 78.57 79.42 78.80 78.34 78.81 75.65 77.23 74.82 75.06
48.05 46.42 52.95 54.46 53.20 51.76 51.66 50.67 46.46 42.62 43.88 46.52 52.61 49.81 53.81 59.69 61.17 62.46 64.10 65.08 66.78 68.31 70.37 71.22 71.93 72.32 72.29 73.36 74.81 75.98 77.89 78.83 79.90 79.76 79.70 79.94 80.21 77.10 76.38 77.69 76.49 75.75 75.52 75.81
49.43 49.20 54.38 54.65 54.61 54.50 52.07 49.47 52.69 49.28 50.42 47.90 49.60 52.92 56.31 59.14 59.56 60.90 61.72 63.58 65.58 67.28 69.51 70.97 72.21 72.57 72.69 73.75 75.41 76.32 77.79 79.10 79.81 79.64 80.09 80.34 80.12 79.39 77.54 78.16 79.48 77.33 79.35 76.47
53.60 49.83 54.02 53.84 55.31 54.71 54.08 54.50 47.99 49.43 45.58 45.04 48.65 50.63 51.19 55.53 57.20 59.35 60.45 62.31 64.07 67.10 69.21 70.75 71.76 72.87 73.83 73.91 75.58 77.03 77.78 79.12 79.52 79.82 80.13 80.23 80.48 80.55 79.83 79.87 79.85 79.13 79.52 80.95
54.39 53.45 53.45 54.85 51.92 50.98 51.38 51.54 51.64 51.22 49.92 46.68 46.33 49.34 56.47 57.30 58.34 58.25 60.33 61.86 63.10 65.06 68.03 69.90 71.39 72.77 74.15 74.50 74.62 76.15 77.57 78.19 79.63 79.82 80.00 80.24 80.32 80.51 80.97 79.80 80.12 80.15 81.27 81.99
54.65 53.15 50.44 51.87 54.48 55.41 54.16 52.56 52.79 49.34 49.14 49.88 50.37 50.99 57.36 58.10 58.19 59.74 60.03 62.28 63.24 65.38 67.11 69.27 70.81 72.29 72.99 74.48 74.45 75.20 76.48 76.98 79.18 79.55 79.75 79.97 80.52 80.60 80.30 80.25 80.32 81.14 80.71 81.48
54.67 51.27 48.31 50.84 52.83 54.10 52.35 53.15 53.74 53.28 52.43 50.80 47.49 50.44 58.30 57.82 58.23 60.13 60.43 61.84 64.22 65.77 67.07 68.29 70.04 71.46 72.30 73.63 75.81 76.14 76.71 76.38 77.17 78.84 78.78 79.61 79.92 80.30 80.09 80.23 80.86 81.03 80.93 81.15
51.81 51.61 50.53 49.22 51.79 52.80 50.56 52.15 53.01 52.75 50.32 50.58 51.22 52.77 55.21 56.44 57.30 60.12 61.15 62.55 63.90 66.08 67.19 68.28 69.27 70.58 72.22 74.01 76.25 77.17 76.09 76.16 77.14 77.74 78.01 78.66 79.77 79.85 80.17 80.45 81.22 80.94 81.39 80.84
51.45 48.61 51.73 52.91 54.22 53.28 52.35 51.59 52.34 51.57 52.92 50.42 52.90 53.38 56.12 57.34 58.31 59.82 61.34 62.44 62.31 63.32 64.39 66.14 66.96 68.61 70.80 73.76 76.80 77.74 76.82 77.61 76.85 78.19 78.35 78.52 79.91 80.66 80.96 80.58 80.60 80.94 81.18 81.01
51.28 46.94 51.18 50.83 53.17 51.79 50.39 52.87 52.40 52.78 52.78 53.15 53.52 54.22 58.78 59.40 59.78 59.65 60.36 60.71 60.16 61.34 63.84 65.21 66.95 68.72 69.69 71.96 75.95 77.10 77.82 77.27 78.33 78.35 78.01 79.14 79.71 80.48 80.58 80.64 80.58 81.04 80.85 81.13
46.40 47.79 48.75 46.39 51.64 50.47 47.38 51.46 52.88 53.70 54.40 53.92 51.71 55.73 58.87 58.63 58.85 59.08 60.29 60.90 60.77 62.02 62.76 63.59 64.46 67.44 70.02 70.89 73.81 75.21 77.63 78.64 78.19 77.75 79.39 79.04 79.68 79.50 80.20 80.69 80.57 80.29 80.38 80.99
44.65 46.08 46.74 45.46 49.04 42.09 51.60 55.82 54.65 53.44 54.70 55.77 56.01 57.42 58.39 58.95 60.09 61.27 62.35 61.91 62.06 62.87 63.32 64.04 64.27 65.82 68.14 69.73 70.93 74.70 74.36 78.40 78.28 78.39 77.61 79.53 79.36 79.62 80.21 80.40 80.21 80.68 80.71 80.60
47.13 45.12 43.81 42.47 45.28 48.99 51.45 53.20 53.48 52.39 52.54 56.28 55.89 57.12 57.71 58.79 59.47 59.82 61.81 62.30 62.57 63.19 64.00 64.67 65.00 65.00 66.49 66.71 70.42 72.12 74.05 75.88 77.79 77.94 78.23 78.15 79.75 79.56 79.99 79.70 80.21 80.52 80.32 80.29
46.09 46.62 42.98 44.08 41.60 42.41 50.59 53.64 54.66 55.38 49.47 57.01 57.05 57.07 57.33 59.03 54.69 57.23 62.41 64.19 65.56 66.79 67.50 68.16 67.11 65.66 65.79 67.49 67.11 69.02 71.08 76.57 77.45 77.83 78.51 79.52 80.10 80.04 79.59 80.20 80.34 80.55 80.51 80.00
40.86 42.10 39.85 40.69 41.07 46.50 52.28 54.72 55.77 46.71 52.98 59.84 59.14 58.83 59.95 59.82 62.84 65.48 66.49 66.39 67.46 68.19 69.08 69.58 69.33 68.26 69.84 70.14 71.71 73.06 73.08 74.51 77.10 77.85 78.83 79.94 80.26 80.40 80.55 80.69 80.80 80.46 80.04 78.89
41.34 39.44 39.74 41.30 39.88 38.77 52.66 51.36 49.14 53.80 58.22 58.30 58.95 59.50 60.16 61.78 62.73 63.98 64.99 65.96 66.93 67.70 69.25 70.08 69.68 69.27 69.61 72.40 74.85 76.00 76.28 77.29 80.09 79.36 78.80 79.65 80.37 79.49 79.30 80.83 80.69 80.60 80.07 79.16
39.11 43.67 42.08 43.45 43.50 51.24 52.43 52.15 53.97 54.72 53.92 55.46 55.97 56.96 58.36 58.48 59.05 61.59 62.99 65.08 66.76 67.81 70.09 71.61 70.07 72.29 72.98 74.34 76.14 76.12 77.82 80.94 80.19 79.93 79.52 79.88 80.48 79.94 80.08 79.76 80.11 78.37 79.24 76.76
45.03 47.46 43.38 44.35 47.36 48.91 50.71 52.36 53.21 53.66 53.54 54.85 55.49 55.98 55.92 55.53 57.21 59.40 61.85 63.07 65.73 67.02 69.98 71.68 71.19 72.36 73.07 75.14 75.62 77.89 78.50 80.48 80.32 79.50 79.89 80.07 79.77 79.64 79.68 78.36 77.86 77.00 76.42 76.17
44.19 45.71 44.19 44.15 46.59 48.42 49.96 51.49 52.33 52.89 53.86 53.73 54.98 54.84 55.65 57.76 58.10 59.43 60.85 62.76 65.06 66.51 70.94 72.04 73.16 72.91 73.67 75.56 76.25 76.79 77.67 78.95 77.75 77.78 77.19 78.25 77.52 77.53 78.02 76.92 72.46 76.55 74.84 68.58
45.62 44.07 41.71 41.04 47.82 48.28 49.36 51.57 52.60 52.13 52.25 53.40 53.68 54.67 56.49 57.04 56.47 58.64 59.74 62.91 65.34 67.70 72.09 72.56 73.78 75.51 75.08 74.74 76.01 77.95 77.51 77.40 77.13 76.07 76.18 75.88 76.40 76.84 77.11 74.42 69.95 48.73 49.62 46.25
MSLP
1000.12 999.65 998.06 997.99 997.90 997.64 996.26 995.64 995.11 994.46 994.79 995.82 995.90 996.39 997.23 996.86 997.97 998.58 999.69 1001.33 1002.48 1003.39 1004.57 1005.69 1006.79 1007.73 1008.64 1009.57 1010.55 1011.49 1012.21 1012.83 1013.44 1014.02 1014.34 1014.53 1014.59 1014.98 1015.18 1015.13 1015.32 1015.70 1016.19 1016.29
999.27 997.25 997.67 998.01 997.69 997.41 996.54 995.17 994.50 994.52 994.36 994.94 995.34 995.59 996.03 996.43 996.53 997.83 998.45 1000.14 1001.37 1002.53 1003.72 1004.95 1006.10 1006.88 1007.85 1008.82 1009.89 1010.92 1011.76 1012.45 1013.14 1013.51 1013.76 1013.94 1014.14 1014.29 1014.70 1014.78 1014.97 1015.53 1015.67 1015.98
996.26 996.02 997.22 996.92 996.57 996.54 996.10 995.21 994.47 994.25 994.44 994.51 995.22 995.03 995.20 995.41 995.62 996.56 997.61 998.77 1000.26 1001.17 1002.34 1003.87 1005.06 1006.02 1006.97 1007.98 1009.05 1010.20 1011.25 1011.97 1012.68 1012.98 1013.52 1013.83 1013.94 1014.20 1014.16 1014.37 1014.64 1014.92 1015.29 1015.50
995.68 995.40 995.54 995.71 995.48 995.66 995.05 995.43 995.15 994.70 994.26 993.97 995.24 994.14 994.26 994.52 994.81 995.75 996.43 997.10 998.64 999.93 1001.21 1002.47 1003.76 1005.01 1005.92 1006.96 1008.27 1009.28 1010.44 1011.34 1012.04 1012.73 1012.58 1013.06 1013.29 1013.28 1013.55 1013.78 1013.89 1014.00 1014.69 1015.14
993.77 993.88 994.18 994.48 994.39 995.00 994.74 995.06 995.56 995.37 994.87 994.37 994.00 993.80 992.60 993.11 993.63 994.17 995.10 995.76 996.81 998.41 999.78 1000.97 1002.29 1003.62 1004.76 1006.09 1007.20 1008.42 1009.63 1010.61 1011.23 1011.92 1012.25 1012.41 1012.89 1012.80 1012.91 1013.13 1013.42 1013.83 1014.25 1014.67
993.47 993.53 993.31 993.41 994.18 994.57 995.23 995.31 995.14 995.53 995.24 993.89 993.46 992.76 991.58 991.25 991.81 992.45 993.43 994.65 995.53 996.78 998.36 999.71 1001.03 1002.56 1003.83 1005.10 1006.28 1007.43 1008.71 1009.75 1010.65 1011.18 1011.86 1011.89 1012.08 1012.46 1012.36 1012.61 1012.76 1013.08 1013.67 1014.00
992.97 992.26 992.80 992.85 993.24 993.99 994.66 994.68 994.12 993.99 993.25 992.27 993.00 992.35 991.34 990.98 991.05 991.61 992.45 993.32 994.37 995.66 997.02 998.50 999.75 1001.16 1002.56 1003.80 1005.15 1006.29 1007.62 1008.76 1009.62 1010.27 1010.93 1011.61 1011.76 1012.22 1012.14 1012.12 1012.34 1012.21 1012.48 1012.83
991.36 991.28 991.17 991.64 991.71 992.31 993.22 993.26 992.12 991.42 991.27 991.66 992.12 990.20 990.09 990.94 990.72 990.71 991.46 992.13 993.31 994.55 995.82 997.23 998.65 999.86 1001.22 1002.47 1003.71 1004.98 1006.16 1007.50 1008.61 1009.37 1009.89 1010.65 1011.22 1011.35 1011.83 1011.81 1011.44 1011.87 1011.82 1011.97
989.75 989.49 989.74 990.66 991.55 991.76 992.02 991.80 991.99 991.17 990.45 989.82 989.37 989.63 990.01 989.82 990.20 990.72 991.27 991.41 991.94 993.27 994.75 995.97 997.39 998.72 999.91 1001.25 1002.42 1003.66 1004.85 1006.22 1007.36 1008.10 1009.00 1009.58 1010.28 1010.61 1010.50 1011.03 1011.40 1011.49 1011.55 1011.58
989.59 989.14 989.16 989.98 990.92 991.22 990.49 991.76 991.98 990.80 989.35 988.53 988.23 987.74 987.77 988.66 989.17 989.55 990.44 990.97 991.33 992.07 993.62 994.85 996.00 997.47 998.68 999.84 1001.02 1002.33 1003.61 1004.71 1005.53 1006.59 1007.52 1008.21 1008.78 1009.47 1009.92 1010.28 1010.59 1010.88 1011.17 1011.43
990.80 989.19 988.14 988.59 988.48 988.99 990.00 989.77 990.62 990.50 989.67 988.49 987.89 987.19 986.83 987.23 988.47 989.32 989.59 990.38 990.84 991.18 992.35 993.68 994.89 995.98 997.41 998.66 999.93 1001.20 1002.39 1003.41 1004.74 1005.59 1006.11 1006.86 1007.49 1008.22 1009.03 1009.36 1009.69 1010.22 1010.62 1010.91
990.93 990.15 988.82 986.95 988.33 989.34 989.28 989.24 989.64 989.25 989.12 988.80 987.53 986.97 986.96 986.70 987.76 988.54 989.42 989.70 990.23 990.66 991.32 992.60 993.83 995.10 996.26 997.58 998.61 999.67 1000.92 1002.17 1003.03 1004.12 1005.09 1005.55 1006.23 1007.03 1007.59 1008.17 1008.76 1009.25 1009.65 1010.19
992.69 991.21 989.33 987.59 987.90 988.60 988.31 988.46 988.51 989.34 988.83 988.32 988.14 987.67 988.45 988.50 988.54 988.45 989.15 989.50 989.96 990.39 990.99 991.72 992.73 993.97 995.17 996.15 997.30 998.26 999.53 1000.51 1001.80 1003.10 1003.86 1004.62 1005.14 1005.71 1006.15 1006.88 1007.74 1008.29 1008.90 1009.33
996.54 992.57 989.81 986.51 985.76 987.57 988.13 987.68 988.09 987.93 988.05 987.68 987.74 987.68 988.65 988.84 989.00 989.44 989.43 989.61 990.05 990.65 991.04 991.48 992.15 992.97 993.98 995.16 996.27 997.27 998.09 999.23 1000.37 1001.48 1002.56 1003.29 1003.96 1004.38 1005.02 1005.90 1006.60 1007.29 1007.80 1008.32
996.44 993.87 991.55 989.17 987.94 987.65 987.33 987.56 987.34 987.21 987.53 987.42 987.23 988.02 988.12 989.01 989.79 990.05 990.51 990.82 991.13 991.48 991.95 992.48 992.90 992.92 993.37 994.40 995.47 996.46 997.40 998.07 998.91 1000.00 1000.93 1001.84 1002.85 1003.72 1004.54 1005.00 1005.47 1006.13 1006.76 1007.35
997.46 995.47 993.33 990.80 989.24 989.55 988.66 987.25 987.41 987.34 987.77 987.81 987.97 987.48 988.31 988.85 989.96 990.75 991.50 991.91 992.29 992.51 992.68 993.07 993.33 993.49 993.66 993.83 994.79 995.70 996.54 997.36 998.14 998.70 999.50 1000.69 1001.83 1002.79 1003.43 1004.09 1004.60 1005.26 1005.68 1006.22
999.26 996.66 994.45 992.35 991.17 990.78 989.60 988.19 987.75 987.54 987.67 988.12 987.82 988.40 988.54 989.25 990.12 991.14 992.08 992.43 992.61 992.81 992.84 992.91 992.88 993.07 993.46 993.61 994.17 994.91 995.85 996.86 997.42 998.09 998.82 999.72 1000.64 1001.47 1002.35 1003.16 1003.71 1003.89 1004.35 1005.34
1000.52 998.77 996.66 994.16 992.92 990.83 989.09 989.09 989.23 988.87 988.48 988.47 988.73 989.09 989.42 989.93 990.78 991.49 992.20 992.53 992.81 992.92 992.85 992.72 992.42 992.29 992.67 993.10 993.17 994.16 994.95 996.06 996.86 997.44 998.15 998.68 999.57 1000.51 1001.46 1002.14 1002.54 1003.51 1004.12 1004.40
1000.98 1000.06 997.62 995.39 992.53 990.94 989.75 989.68 989.52 989.78 989.95 990.29 990.30 990.73 991.15 991.58 991.98 992.12 992.28 992.42 992.58 992.73 992.66 992.45 992.10 991.92 991.92 991.81 992.43 993.15 994.08 994.89 995.99 996.61 997.11 997.87 998.78 999.66 1000.38 1000.96 1001.94 1002.68 1003.29 1003.61
1000.55 1000.47 999.42 996.59 993.94 991.08 990.63 990.52 991.03 990.91 990.76 990.92 991.30 991.67 991.98 992.23 992.26 992.49 992.58 992.59 992.62 992.62 992.58 992.72 992.34 991.92 991.74 992.00 992.12 992.50 993.28 994.13 994.78 995.28 996.39 997.53 998.19 998.82 999.49 1000.19 1000.76 1001.46 1002.04 1002.40
999.95 999.89 999.14 997.95 995.73 993.40 992.14 991.95 992.36 992.81 993.49 992.50 992.46 992.77 993.18 993.33 993.80 994.07 994.13 993.97 993.89 993.81 993.63 993.58 993.38 993.18 992.67 992.55 992.47 992.32 992.66 993.02 993.46 994.69 995.63 996.52 997.35 998.08 998.87 999.50 1000.01 1000.56 1001.10 1001.44
999.19 999.30 998.66 998.32 996.77 995.18 993.78 993.77 993.95 995.12 995.28 995.50 995.40 995.49 995.36 995.41 995.42 995.05 994.69 994.57 994.47 994.22 993.73 993.44 993.13 992.86 992.62 992.25 992.42 992.34 992.60 992.53 993.26 994.03 994.75 995.64 996.43 997.21 997.86 998.65 999.37 999.96 1000.40 1000.81
1000.04 999.14 998.45 998.02 997.07 996.69 995.87 995.65 995.58 996.02 997.04 997.23 997.38 997.40 997.20 996.95 996.65 996.16 995.63 995.22 994.84 994.43 993.77 993.05 992.81 992.07 992.01 992.11 992.10 992.39 992.50 992.82 993.18 993.79 994.31 994.94 995.70 996.43 996.93 997.83 998.64 999.42 1000.03 1000.14
1000.24 999.86 999.35 999.08 998.17 997.76 997.45 997.32 997.28 997.49 997.98 998.12 998.34 998.30 998.20 997.75 997.34 996.48 996.11 995.64 995.23 994.92 993.88 993.05 992.33 992.18 992.11 992.14 992.47 992.66 992.81 992.78 993.22 993.61 994.09 994.61 995.17 995.88 996.72 997.48 998.46 999.00 999.31 999.85
1001.45 1000.61 1000.09 999.32 999.25 999.10 998.63 998.55 998.55 998.53 998.44 998.51 998.49 998.36 997.84 997.88 997.27 996.83 996.26 995.91 995.56 995.14 993.79 992.79 992.64 992.39 992.12 992.36 992.59 992.42 992.51 992.70 993.09 993.56 993.99 994.38 994.89 995.75 996.47 997.45 998.89 999.04 999.65 1000.08
1002.88 1001.75 1000.74 999.43 999.55 998.97 998.70 998.78 998.80 998.65 998.80 998.52 998.02 997.81 997.94 997.57 997.34 997.19 996.45 996.04 996.03 995.19 994.16 993.67 993.13 992.79 993.55 993.69 993.73 992.92 992.76 992.86 993.16 993.38 993.69 994.19 994.07 995.20 995.68 997.46 999.52 1000.38 1000.38 1000.62
Wind_Speed
24 20 26 29 28 24 22 22 26 22 16 20 19 18 20 20 18 17 21 20 22 22 22 23 22 21 20 20 19 18 16 14 11 11 11 10 10 9 9 8 9 8 8 8
19 30 27 25 27 28 27 24 22 22 15 13 19 20 18 16 20 17 18 21 21 22 23 23 23 23 22 21 19 17 16 14 12 11 9 9 9 10 9 9 9 10 11 9
27 20 27 27 25 27 27 27 21 18 19 19 14 19 18 20 15 19 16 22 21 23 24 24 25 24 23 22 20 19 17 16 15 14 9 7 8 7 9 9 10 11 10 10
29 25 29 27 28 26 27 26 23 19 20 17 23 16 19 18 19 18 19 21 23 24 25 25 26 25 25 23 21 19 19 17 16 16 13 14 11 11 11 9 10 10 12 11
29 24 22 29 24 27 23 21 23 22 18 17 19 20 17 26 23 23 21 20 24 25 26 26 27 27 26 23 22 20 19 18 17 17 16 13 14 11 9 10 10 10 10 11
28 20 23 20 25 22 21 19 21 23 18 21 24 20 18 16 25 27 23 21 21 24 25 26 26 25 24 23 22 21 20 19 18 18 19 15 15 14 12 11 10 10 10 11
28 31 23 23 23 23 20 20 14 17 20 16 24 24 18 18 19 18 19 22 21 22 24 25 26 25 24 24 23 21 21 20 20 19 18 19 16 16 13 11 11 10 10 11
23 27 34 22 28 24 26 25 16 21 18 18 24 27 23 24 12 14 22 20 22 22 23 24 25 25 24 24 24 22 22 22 21 21 20 18 17 13 14 13 11 11 10 10
26 31 34 30 25 27 23 30 25 23 23 16 20 24 27 22 27 20 15 21 23 24 23 25 27 25 25 23 24 24 22 23 22 22 19 19 18 18 16 17 14 12 10 11
27 20 30 33 25 29 28 23 24 19 22 20 16 16 17 21 18 25 25 17 21 24 24 24 24 26 23 25 24 25 24 23 24 24 21 19 20 20 17 14 15 15 13 11
32 23 16 27 30 28 26 23 27 21 18 14 12 9 17 19 22 21 21 26 21 21 24 24 23 25 25 23 24 24 23 24 22 23 22 21 20 20 19 17 16 16 14 13
36 12 22 30 28 26 27 28 29 18 24 18 12 2 11 10 8 17 21 19 24 20 22 22 23 21 23 24 24 25 25 25 23 22 21 22 20 20 20 19 19 18 17 16
4 15 17 24 26 26 31 31 25 27 19 20 16 6 8 6 2 14 16 18 18 19 20 20 20 22 21 22 21 22 23 25 25 22 22 20 21 20 21 20 19 19 18 17
10 17 24 18 23 22 29 31 30 25 21 17 19 15 12 6 7 5 5 12 16 14 14 14 18 22 21 19 18 19 21 23 23 23 23 20 20 22 20 19 19 19 19 19
8 15 20 26 13 10 29 31 31 31 24 25 14 19 14 14 13 12 11 8 5 4 2 5 9 10 9 15 15 18 19 18 21 21 21 21 20 18 17 18 19 19 19 18
9 12 20 22 18 7 13 21 31 28 28 23 23 15 17 12 9 7 8 8 5 5 10 8 9 12 13 15 15 15 18 18 17 18 21 19 19 18 19 18 18 18 19 19
13 10 11 15 18 11 18 21 18 25 26 24 21 18 11 9 8 4 5 6 4 7 6 8 10 9 11 13 12 14 14 16 17 18 16 19 19 20 19 18 18 20 20 17
13 10 9 11 17 23 11 17 16 13 14 14 12 9 9 7 7 9 9 9 10 11 10 9 9 11 12 13 14 14 15 15 16 16 19 18 19 18 18 19 19 16 15 17
13 11 7 11 15 7 20 13 17 23 19 15 14 13 9 9 9 11 10 10 11 14 13 12 13 13 13 11 15 10 12 14 16 17 19 19 17 18 18 19 17 16 15 16
14 12 12 8 14 19 7 11 1 2 10 15 20 17 15 10 11 12 10 9 10 12 11 13 13 13 12 10 13 11 12 13 15 19 16 16 16 17 18 17 18 16 16 16
12 12 14 14 10 11 6 9 4 11 6 10 4 4 9 7 9 13 11 11 11 12 14 14 12 13 12 12 12 11 11 14 18 14 15 15 16 16 16 16 15 15 15 15
11 13 13 14 18 20 11 2 7 8 6 10 11 13 9 9 10 13 14 14 14 15 15 15 13 14 14 11 10 10 11 13 10 13 14 15 16 15 15 16 14 14 14 15
12 11 10 12 12 8 10 12 12 7 6 8 10 11 11 12 14 15 14 14 15 17 17 13 14 13 10 9 7 9 11 9 10 12 13 14 15 15 13 15 14 13 13 14
12 11 14 16 16 16 16 13 12 12 14 14 15 14 15 17 17 17 15 15 15 16 18 14 13 10 10 7 9 10 9 8 10 12 12 12 13 13 13 12 12 12 13 14
15 17 17 20 22 22 22 19 17 18 19 20 20 20 18 19 18 17 17 16 15 18 20 11 9 11 9 5 7 9 9 9 11 11 11 11 11 12 12 4 2 10 2 4
16 20 17 17 19 18 17 17 19 21 22 24 21 20 19 21 20 20 18 16 14 20 13 12 13 5 4 3 6 7 7 9 10 11 10 10 10 12 11 11 7 13 12 11
Wind_Direction
199 202 213 210 218 223 237 211 231 201 184 199 223 222 186 169 185 198 174 186 189 190 186 184 192 186 190 188 189 192 197 189 187 198 197 209 206 202 214 220 213 197 224 222
188 218 213 219 213 223 234 243 214 232 199 203 208 221 204 244 183 197 190 184 193 186 182 189 189 190 192 191 188 188 196 191 197 199 210 209 213 208 209 212 199 214 217 216
204 213 216 209 216 214 225 233 232 222 218 214 227 227 223 225 207 184 209 181 194 190 186 187 189 197 193 191 188 189 190 194 195 216 199 207 224 234 204 215 206 205 216 217
221 222 194 212 216 213 220 222 237 238 233 209 204 233 211 218 200 196 198 192 186 195 190 185 190 193 196 194 191 189 187 195 195 201 207 205 209 211 218 208 212 205 194 215
209 215 194 209 210 214 227 214 223 238 243 250 232 221 238 197 211 197 204 199 189 191 191 189 190 191 196 194 192 192 187 192 199 195 219 198 216 215 209 220 209 203 183 204
226 209 222 214 213 213 214 230 221 219 234 238 231 242 219 225 203 207 188 205 196 187 191 194 186 187 194 193 194 191 187 193 198 196 201 220 202 228 212 202 210 210 212 193
213 226 211 225 208 199 208 207 204 216 214 227 225 233 235 229 220 202 208 195 195 190 191 191 187 187 187 192 194 193 186 193 195 201 201 211 217 204 231 213 208 217 217 207
211 211 220 197 215 197 206 210 217 209 216 220 227 229 224 236 247 230 196 206 193 186 194 191 192 187 186 189 190 194 187 190 194 200 203 200 211 213 214 217 222 210 233 211
202 224 192 213 210 212 192 216 218 241 213 234 213 217 237 228 222 218 242 201 195 184 193 190 190 195 188 188 190 192 193 191 193 200 202 204 203 212 212 216 210 236 215 238
244 215 220 198 206 214 228 203 215 229 249 223 232 242 206 208 223 212 206 211 218 178 187 195 193 192 195 190 191 191 195 194 196 197 200 203 203 205 215 209 215 210 226 222
240 251 238 206 202 197 205 210 213 229 232 244 242 239 220 200 201 215 217 209 214 207 184 193 195 194 194 196 192 195 197 200 195 200 202 204 204 204 205 216 208 216 208 218
215 235 239 202 198 211 208 218 199 222 214 238 267 95 30 155 207 188 215 210 209 202 189 191 189 197 194 197 199 198 201 202 203 202 205 204 205 204 204 208 212 204 212 206
190 226 220 238 188 197 220 208 219 210 234 210 229 164 121 114 288 188 194 212 205 200 195 188 189 188 202 198 200 202 199 207 206 204 205 209 206 206 208 205 205 210 206 209
296 248 229 220 198 190 207 216 212 218 218 220 208 231 121 102 155 134 189 193 193 199 198 200 197 191 193 197 194 203 204 208 206 204 209 209 209 210 207 205 203 206 207 208
271 242 238 252 258 222 197 216 213 217 215 224 202 208 166 133 129 143 134 115 101 124 204 228 254 258 215 187 195 194 209 209 209 201 204 208 207 211 210 207 207 206 207 207
311 269 253 251 244 228 264 231 219 213 224 221 231 229 189 168 140 148 160 185 166 207 180 192 218 230 233 214 194 201 202 213 204 212 206 201 204 202 208 209 207 207 208 207
303 274 237 232 237 229 237 234 240 225 211 225 222 227 231 166 178 194 231 271 251 234 238 252 251 210 232 212 210 206 204 203 216 210 208 205 200 203 204 207 208 209 207 204
271 292 281 240 231 224 235 204 234 251 258 242 242 254 254 268 271 252 244 258 267 265 267 272 253 227 201 218 208 195 201 200 211 213 212 206 204 202 201 205 211 210 209 210
235 262 259 251 229 204 219 228 209 212 222 229 236 233 245 261 268 265 269 272 281 283 283 275 256 239 241 231 191 207 198 199 202 215 213 214 201 202 201 205 204 205 208 208
215 216 264 257 251 219 167 72 63 61 218 222 217 228 236 227 232 231 254 283 321 335 333 346 315 280 280 264 255 242 208 199 207 210 211 206 209 203 206 201 200 201 206 212
199 216 223 237 258 247 350 86 227 186 72 2 303 179 230 208 351 346 334 333 332 322 308 300 298 297 286 274 276 267 235 210 216 206 203 202 204 202 205 204 201 200 205 212
211 197 219 229 237 239 279 23 234 42 48 16 7 10 358 338 323 317 323 323 322 318 311 293 283 270 266 259 246 237 235 234 201 206 198 197 196 199 199 200 200 201 203 211
248 260 236 231 225 246 291 302 286 30 339 318 330 320 319 310 309 304 307 316 314 314 310 297 278 276 291 267 240 240 240 234 207 198 199 195 188 194 208 192 196 200 202 219
263 260 267 271 265 274 290 302 296 313 297 297 298 291 291 289 290 296 303 309 315 312 303 299 283 282 271 246 248 245 247 213 205 196 198 192 186 188 201 186 196 207 208 211
285 296 273 261 258 276 279 279 283 286 288 289 283 286 295 300 296 297 300 306 309 307 293 288 296 275 273 275 267 249 221 197 198 195 197 192 193 186 186 191 262 211 164 308
270 267 258 260 266 268 261 259 257 256 261 273 284 293 292 291 287 293 292 298 313 289 306 308 293 322 44 13 330 307 194 189 197 191 191 190 188 173 188 157 137 55 80 68